1390176032364,19.3885
1390176092364,19.4663
1390176152364,19.4889
1390176212365,19.4353
1390176272365,19.4571
1390176332365,19.5358
1390176392365,19.4997
1390176452364,19.4973
1390176512364,19.5681
1390176572365,19.4938
1390176632365,19.5152
1390176692365,19.4738
1390176752365,19.4676
1390176812365,19.4567
1390176872365,19.4330
1390176932365,19.4081
1390176992365,19.4555
1390177052365,19.6586
1390177112364,19.4368
1390177172364,19.4423
1390177232364,19.4562
1390177292364,19.3994
1390177352364,19.4319
1390177412364,19.4208
1390177472364,19.4746
1390177532364,19.3814
1390177592365,19.4472
1390177652365,19.3829
1390177712365,19.4978
1390177772364,19.4934
1390177832364,19.4445
1390177892365,19.4426
1390177952365,19.4953
1390178012365,19.4976
1390178072365,19.4511
1390178132365,19.5717
1390178192365,19.4360
1390178252365,19.4892
1390178312365,19.4914
1390178372365,19.4966
1390178432365,19.4761
1390178492364,19.4769
1390178552364,19.4245
1390178612364,19.5116
1390178672364,19.4782
1390178732364,19.4619
1390178792364,19.4772
1390178852364,19.5378
1390178912365,19.5038
1390178972365,19.5060
1390179032365,19.5306
1390179092365,19.4787
1390179152364,19.5098
1390179212364,19.5301
1390179272365,19.4345
1390179332365,19.4684
1390179392365,19.4783
1390179452365,19.5137
1390179512365,19.4962
1390179572365,19.4953
1390179632375,19.4762
1390179692375,19.4516
1390179752375,19.4721
1390179812375,19.5072
1390179872375,19.4490
1390179932375,19.4802
1390179992375,19.4191
1390180052375,19.4202
1390180112375,19.5080
1390180172375,19.5537
1390180232375,19.5501
1390180292375,19.5452
1390180352375,19.5659
1390180412375,19.4756
1390180472375,19.5547
1390180532375,19.5220
1390180592375,19.5101
1390180652375,19.5395
1390180712375,19.5315
1390180772375,19.5347
1390180832375,19.5890
1390180892375,19.5867
1390180952375,19.5054
1390181012375,19.5820
1390181072375,19.5630
1390181132375,19.5187
1390181192375,19.5727
1390181252375,19.4699
1390181312375,19.5237
1390181372375,19.4723
1390181432375,19.5343
1390181492375,19.5651
1390181552375,19.5284
1390181612375,19.5098
1390181672375,19.5475
1390181732375,19.5666
1390181792375,19.5483
1390181852375,19.5817
1390181912375,19.5527
1390181972375,19.5175
1390182032375,19.5114
1390182092375,19.4559
1390182152375,19.5421
1390182212375,19.5624
1390182272375,19.5916
1390182332375,19.6060
1390182392375,19.5808
1390182452375,19.6083
1390182512375,19.5293
1390182572375,19.5603
1390182632375,19.6140
1390182692375,19.5542
1390182752375,19.5363
1390182812375,19.5277
1390182872375,19.4885
1390182932375,19.5691
1390182992375,19.5097
1390183052375,19.5184
1390183112375,19.5858
1390183172375,19.5608
1390183232385,19.5143
1390183292385,19.5434
1390183352385,19.6512
1390183412385,19.6099
1390183472385,19.6350
1390183532385,19.5924
1390183592385,19.5566
1390183652385,19.5742
1390183712385,19.5648
1390183772385,19.5028
1390183832385,19.5972
1390183892385,19.7362
1390183952385,19.9507
1390184012385,19.9740
1390184072385,19.9776
1390184132385,19.9201
1390184192385,19.8742
1390184252385,19.7498
1390184312385,19.8214
1390184372385,19.6738
1390184432385,19.6154
1390184492385,19.6335
1390184552385,19.6569
1390184612385,19.5666
1390184672385,19.6385
1390184732385,19.6320
1390184792385,19.5915
1390184852385,19.6046
1390184912385,19.6398
1390184972385,19.6041
1390185032385,19.5912
1390185092385,19.5737
1390185152385,19.6362
1390185212385,19.5753
1390185272385,19.5506
1390185332385,19.6895
1390185392385,19.5765
1390185452385,19.6662
1390185512385,19.6270
1390185572385,19.6331
1390185632385,19.6566
1390185692385,19.6334
1390185752385,19.6994
1390185812385,19.7714
1390185872385,19.7358
1390185932385,19.7155
1390185992385,19.7239
1390186052385,19.7092
1390186112385,19.6792
1390186172385,19.6595
1390186232385,19.6068
1390186292385,19.6601
1390186352385,19.6004
1390186412385,19.6595
1390186472385,19.6143
1390186532385,19.7119
1390186592385,19.5934
1390186652385,19.6780
1390186712385,19.5848
1390186772385,19.6540
1390186832395,19.6374
1390186892395,19.6072
1390186952395,19.7144
1390187012395,19.7263
1390187072395,19.6589
1390187132395,19.6825
1390187192395,19.6503
1390187252395,19.6443
1390187312395,19.6665
1390187372395,19.6198
1390187432395,19.5571
1390187492395,19.6002
1390187552395,19.6554
1390187612395,19.5920
1390187672395,19.5780
1390187732395,19.5746
1390187792395,19.6105
1390187852395,19.5458
1390187912395,19.6034
1390187972395,19.6258
1390188032395,19.5864
1390188092395,19.6006
1390188152395,19.6316
1390188212395,19.5715
1390188272395,19.6677
1390188332395,19.5978
1390188392395,19.6801
1390188452395,19.6821
1390188512395,19.6946
1390188572395,19.6878
1390188632395,19.7041
1390188692395,19.6887
1390188752395,19.7030
1390188812395,19.6966
1390188872395,19.6460
1390188932395,19.6260
1390188992395,19.7111
1390189052395,19.6784
1390189112395,19.6254
1390189172395,19.6052
1390189232395,19.5907
1390189292395,19.6881
1390189352395,19.7208
1390189412395,19.7842
1390189472395,19.7500
1390189532395,19.8572
1390189592395,19.7575
1390189652395,19.8829
1390189712395,19.8648
1390189772395,19.7961
1390189832395,19.8122
1390189892395,19.7154
1390189952395,19.7290
1390190012395,19.7793
1390190072395,19.7550
1390190132395,19.7808
1390190192395,19.7126
1390190252395,19.7378
1390190312395,19.7013
1390190372395,19.7086
1390190432406,19.6889
1390190492406,19.6558
1390190552406,19.6499
1390190612406,19.6342
1390190672406,19.5911
1390190732406,19.6553
1390190792406,19.6113
1390190852406,19.5737
1390190912406,19.6268
1390190972406,19.5763
1390191032406,19.6064
1390191092406,19.5313
1390191152406,19.5979
1390191212406,19.5967
1390191272406,19.5673
1390191332406,19.6129
1390191392406,19.6517
1390191452406,19.6091
1390191512406,19.6236
1390191572406,19.6024
1390191632406,19.6470
1390191692406,19.6172
1390191752406,19.7099
1390191812406,19.6088
1390191872406,19.6472
1390191932406,19.6300
1390191992406,19.6411
1390192052406,19.5788
1390192112406,19.6286
1390192172406,19.6258
1390192232406,19.6013
1390192292406,19.6193
1390192352406,19.5990
1390192412406,19.6182
1390192472406,19.6243
1390192532406,19.5638
1390192592405,19.5661
1390192652406,19.6792
1390192712406,19.6798
1390192772406,19.6385
1390192832406,19.6266
1390192892406,19.6730
1390192952406,19.6811
1390193012406,19.7021
1390193072406,19.7361
1390193132406,19.6913
1390193192406,19.6958
1390193252406,19.7184
1390193312406,19.6649
1390193372406,19.7514
1390193432406,19.7964
1390193492406,19.6988
1390193552406,19.6875
1390193612406,19.7279
1390193672406,19.6747
1390193732406,19.7291
1390193792406,19.7455
1390193852406,19.7916
1390193912406,19.7827
1390193972406,19.7796
1390194032416,19.7509
1390194092416,19.7928
1390194152416,19.8622
1390194212416,19.8392
1390194272416,19.7979
1390194332416,19.7482
1390194392416,19.6421
1390194452416,19.7134
1390194512416,19.6384
1390194572416,19.6358
1390194632416,19.6137
1390194692416,19.6584
1390194752416,19.6868
1390194812416,19.6853
1390194872416,19.6358
1390194932416,19.7077
1390194992416,19.6229
1390195052416,19.6486
1390195112416,19.6200
1390195172416,19.6529
1390195232416,19.6357
1390195292416,19.6721
1390195352416,19.6902
1390195412416,19.7100
1390195472416,19.7592
1390195532416,19.6911
1390195592416,19.6900
1390195652416,19.6533
1390195712416,19.7227
1390195772416,19.6940
1390195832416,19.7165
1390195892416,19.7107
1390195952416,19.7162
1390196012416,19.7734
1390196072416,19.7496
1390196132416,19.6899
1390196192416,19.6929
1390196252416,19.6973
1390196312416,19.6548
1390196372416,19.6954
1390196432416,19.6621
1390196492416,19.6775
1390196552416,19.7165
1390196612416,19.6447
1390196672416,19.6934
1390196732416,19.6642
1390196792416,19.6775
1390196852416,19.6742
1390196912416,19.6628
1390196972416,19.6106
1390197032416,19.6846
1390197092416,19.6788
1390197152416,19.5785
1390197212416,19.6194
1390197272416,19.5684
1390197332416,19.7056
1390197392416,19.6811
1390197452416,19.7122
1390197512416,19.6839
1390197572416,19.6361
1390197632427,19.7166
1390197692427,19.7565
1390197752427,19.6650
1390197812427,19.6710
1390197872427,19.6418
1390197932427,19.7041
1390197992427,19.7546
1390198052427,19.6458
1390198112427,19.6790
1390198172427,19.6196
1390198232427,19.6897
1390198292427,19.7094
1390198352427,19.6211
1390198412427,19.6825
1390198472427,19.6570
1390198532427,19.7455
1390198592427,19.6932
1390198652427,19.6037
1390198712427,19.6739
1390198772427,19.5940
1390198832427,19.6478
1390198892427,19.6349
1390198952427,19.6679
1390199012427,19.7146
1390199072427,19.8904
1390199132427,19.9961
1390199192427,20.4987
1390199252427,20.3313
1390199312427,20.2349
1390199372427,20.1892
1390199432427,20.0556
1390199492427,20.0278
1390199552427,20.0747
1390199612427,19.9719
1390199672427,19.9521
1390199732427,19.9134
1390199792427,19.8634
1390199852427,19.7942
1390199912427,19.8228
1390199972427,19.8208
1390200032427,19.7708
1390200092427,19.8390
1390200152427,19.7865
1390200212427,19.8168
1390200272427,19.7684
1390200332427,19.8041
1390200392427,19.8256
1390200452427,19.8141
1390200512427,19.8197
1390200572427,19.7540
1390200632427,19.6856
1390200692427,19.7787
1390200752427,19.7734
1390200812427,19.6651
1390200872427,19.7461
1390200932427,19.6910
1390200992427,19.6606
1390201052427,19.6831
1390201112427,19.7275
1390201172427,19.6231
1390201232438,19.6323
1390201292438,19.7567
1390201352438,19.7439
1390201412438,19.7259
1390201472438,19.6536
1390201532438,19.7149
1390201592438,19.7120
1390201652438,19.7071
1390201712438,19.7229
1390201772438,19.7550
1390201832438,19.6998
1390201892438,19.6978
1390201952438,19.7259
1390202012438,19.8060
1390202072438,19.8049
1390202132438,19.7714
1390202192438,19.8502
1390202252438,19.8785
1390202312438,19.8271
1390202372438,19.9703
1390202432438,19.9226
1390202492438,19.9128
1390202552438,19.8839
1390202612438,19.9577
1390202672438,19.8986
1390202732438,19.8947
1390202792438,19.8796
1390202852438,19.9496
1390202912438,19.8731
1390202972438,19.9169
1390203032438,19.8324
1390203092438,19.8692
1390203152438,19.9537
1390203212438,19.8238
1390203272438,19.8446
1390203332438,19.8298
1390203392438,19.8554
1390203452438,19.8106
1390203512438,19.7864
1390203572438,19.8900
1390203632438,19.7741
1390203692438,19.7737
1390203752438,19.7758
1390203812438,19.7553
1390203872438,19.7332
1390203932438,19.7939
1390203992438,19.8070
1390204052438,19.8020
1390204112438,19.7657
1390204172438,19.7500
1390204232438,19.7228
1390204292438,19.7164
1390204352438,19.7121
1390204412438,19.7288
1390204472438,19.7468
1390204532438,19.7096
1390204592438,19.7079
1390204652438,19.7531
1390204712438,19.7029
1390204772438,19.6396
1390204832449,19.6296
1390204892449,19.7648
1390204952449,19.7688
1390205012449,19.7113
1390205072449,19.7385
1390205132449,19.7348
1390205192449,19.7586
1390205252449,19.7162
1390205312449,19.7367
1390205372449,19.7398
1390205432449,19.7763
1390205492449,19.8336
1390205552449,19.8021
1390205612449,19.8506
1390205672449,19.7590
1390205732449,19.7577
1390205792449,19.7404
1390205852449,19.7411
1390205912449,19.7073
1390205972449,19.7427
1390206032449,19.7492
1390206092449,19.8333
1390206152449,19.7935
1390206212449,19.6683
1390206272449,19.7552
1390206332449,19.7727
1390206392449,19.7808
1390206452449,19.7064
1390206512449,19.8193
1390206572449,19.7283
1390206632449,19.7617
1390206692449,19.7530
1390206752449,19.7091
1390206812449,19.8021
1390206872449,19.7290
1390206932449,19.7336
1390206992449,19.8250
1390207052449,19.8537
1390207112449,19.8390
1390207172449,19.8633
1390207232449,19.8044
1390207292449,19.8043
1390207352449,19.7955
1390207412449,19.8051
1390207472449,19.7817
1390207532449,19.8030
1390207592449,19.8253
1390207652449,19.7740
1390207712449,19.7699
1390207772449,19.8085
1390207832449,19.8119
1390207892449,19.7537
1390207952449,19.8523
1390208012449,19.8143
1390208072449,19.8113
1390208132449,19.8029
1390208192449,19.8153
1390208252449,19.7470
1390208312449,19.7826
1390208372449,19.8270
1390208432460,19.8082
1390208492460,19.8455
1390208552460,19.8379
1390208612460,19.9423
1390208672460,19.8145
1390208732460,19.7541
1390208792460,19.8294
1390208852460,19.7747
1390208912460,19.7933
1390208972460,19.8299
1390209032460,19.8080
1390209092460,19.8218
1390209152460,19.8474
1390209212460,19.8482
1390209272460,19.8943
1390209332460,19.7470
1390209392460,19.8072
1390209452460,19.7660
1390209512460,19.8186
1390209572460,19.8052
1390209632460,19.8064
1390209692460,19.7751
1390209752460,19.7871
1390209812460,19.7970
1390209872460,19.7867
1390209932460,19.7696
1390209992460,19.8352
1390210052460,19.8174
1390210112460,19.8240
1390210172460,19.8654
1390210232460,19.8346
1390210292460,19.7860
1390210352460,19.7926
1390210412460,19.8098
1390210472460,19.8024
1390210532460,19.8216
1390210592460,19.7602
1390210652460,19.7766
1390210712460,19.7602
1390210772460,19.8317
1390210832460,19.7437
1390210892460,19.7999
1390210952460,19.8339
1390211012460,19.8420
1390211072460,19.8737
1390211132460,19.8848
1390211192460,19.8288
1390211252460,19.8524
1390211312460,19.7894
1390211372460,19.8241
1390211432460,19.8873
1390211492460,19.7939
1390211552460,19.8266
1390211612460,19.8380
1390211672460,19.7513
1390211732460,19.8140
1390211792460,19.7832
1390211852460,19.8200
1390211912460,19.8321
1390211972460,19.8179
1390212032471,19.8835
1390212092471,19.8292
1390212152471,19.7760
1390212212471,19.8098
1390212272471,19.7976
1390212332471,19.7901
1390212392471,19.8210
1390212452471,19.7466
1390212512471,19.8075
1390212572471,19.7494
1390212632471,19.7311
1390212692471,19.8501
1390212752471,19.7820
1390212812471,19.8873
1390212872471,19.8353
1390212932471,19.8427
1390212992471,19.8503
1390213052471,19.8850
1390213112471,19.7042
1390213172471,19.8239
1390213232471,19.7574
1390213292471,19.8111
1390213352471,19.8300
1390213412471,19.8148
1390213472471,19.8528
1390213532471,19.9044
1390213592471,19.8976
1390213652471,19.8942
1390213712471,19.9447
1390213772471,19.9513
1390213832471,19.8638
1390213892471,19.8396
1390213952471,19.9348
1390214012471,19.8079
1390214072471,19.7823
1390214132471,19.8572
1390214192471,19.7936
1390214252471,19.8043
1390214312471,19.8730
1390214372471,19.7361
1390214432471,19.8050
1390214492471,19.7950
1390214552471,19.9096
1390214612471,19.7481
1390214672471,19.7594
1390214732471,19.7846
1390214792471,19.8007
1390214852471,19.8043
1390214912471,19.7345
1390214972471,19.8335
1390215032471,19.7503
1390215092471,19.7405
1390215152471,19.8121
1390215212471,19.7511
1390215272471,19.8146
1390215332471,19.7561
1390215392471,19.8714
1390215452471,19.8247
1390215512471,19.8236
1390215572471,19.8209
1390215632482,19.7846
1390215692482,19.8699
1390215752482,19.8123
1390215812482,19.7032
1390215872482,19.7839
1390215932482,19.8086
1390215992482,19.8358
1390216052482,19.8276
1390216112482,19.7560
1390216172482,19.7862
1390216232482,19.7729
1390216292482,19.8107
1390216352482,19.7650
1390216412482,19.8235
1390216472482,19.7755
1390216532482,19.8329
1390216592482,19.7962
1390216652482,19.7588
1390216712482,19.7197
1390216772482,19.8304
1390216832482,19.7852
1390216892482,19.7879
1390216952482,19.7776
1390217012482,19.8396
1390217072482,19.8140
1390217132482,19.7971
1390217192482,19.7659
1390217252482,19.8439
1390217312482,19.7270
1390217372482,19.8506
1390217432482,19.7501
1390217492482,19.8046
1390217552482,19.8624
1390217612482,19.8017
1390217672482,19.7163
1390217732482,19.7854
1390217792482,19.8065
1390217852482,19.8225
1390217912482,19.8024
1390217972482,19.7765
1390218032482,19.8200
1390218092482,19.8430
1390218152482,19.8409
1390218212482,19.8412
1390218272482,19.7751
1390218332482,19.8497
1390218392482,19.8443
1390218452482,19.8082
1390218512482,19.8334
1390218572482,19.8877
1390218632482,19.8337
1390218692482,19.8609
1390218752482,19.8553
1390218812482,19.8360
1390218872482,19.8821
1390218932482,19.8620
1390218992482,19.8136
1390219052482,19.8492
1390219112482,19.7913
1390219172482,19.8827
1390219232494,19.8310
1390219292494,19.8290
1390219352494,19.8323
1390219412494,19.7726
1390219472494,19.7956
1390219532494,19.8529
1390219592494,19.7865
1390219652494,19.8360
1390219712494,19.8078
1390219772494,19.8624
1390219832494,19.7683
1390219892494,19.8036
1390219952494,19.8840
1390220012494,19.8550
1390220072494,19.8827
1390220132494,19.8273
1390220192494,19.8358
1390220252494,19.8268
1390220312494,19.7706
1390220372494,19.8426
1390220432494,19.7893
1390220492494,19.7831
1390220552494,19.7905
1390220612494,19.7518
1390220672494,19.8218
1390220732494,19.7488
1390220792494,19.7459
1390220852494,19.8965
1390220912494,19.8730
1390220972494,19.8268
1390221032494,19.8661
1390221092494,19.8881
1390221152494,19.8559
1390221212494,19.9209
1390221272494,19.9432
1390221332494,19.8352
1390221392494,19.8897
1390221452494,19.8864
1390221512494,19.8400
1390221572494,19.8596
1390221632494,19.9266
1390221692494,19.8495
1390221752494,19.8914
1390221812494,19.8282
1390221872494,19.8403
1390221932494,19.8354
1390221992494,19.9166
1390222052494,19.9110
1390222112494,19.8665
1390222172494,19.9086
1390222232494,19.8988
1390222292494,19.7912
1390222352494,19.8032
1390222412494,19.8443
1390222472494,19.7902
1390222532494,19.8370
1390222592494,19.7836
1390222652494,19.8634
1390222712494,19.7680
1390222772494,19.8834
1390222832505,19.7828
1390222892505,19.8986
1390222952505,19.7956
1390223012505,19.8226
1390223072505,19.8732
1390223132505,19.8607
1390223192505,19.7975
1390223252505,19.8425
1390223312505,19.8558
1390223372505,19.8727
1390223432505,19.8596
1390223492505,19.8712
1390224032505,19.8262
1390224092505,19.7930
1390224152505,19.8210
1390224212505,19.8921
1390224272505,19.8285
1390224332505,19.9259
1390224392505,19.7965
1390224452505,19.8074
1390224512505,19.7990
1390224572505,19.9136
1390224632505,19.8374
1390224692505,19.7935
1390224752505,19.8841
1390224812505,19.8287
1390224872505,19.8471
1390224932505,19.9146
1390224992505,19.8829
1390225052505,19.8535
1390225112505,19.8806
1390225172505,19.8568
1390225232505,19.8207
1390225292505,19.8477
1390225352505,19.9001
1390225412505,19.9379
1390225472505,19.8714
1390225532505,19.8340
1390225592505,19.8228
1390225652505,19.8078
1390225712505,19.8007
1390225772505,19.8770
1390225832505,19.8765
1390225892505,19.8318
1390225952505,19.8220
1390226012505,19.8487
1390226072505,19.7957
1390226132505,19.8544
1390226192505,19.8488
1390226252505,19.8724
1390226312505,19.8266
1390226372505,19.8550
1390226432516,19.8412
1390226492516,19.8750
1390226552516,19.8348
1390226612516,19.7956
1390226672516,19.8588
1390226732516,19.8393
1390226792516,19.8237
1390226852516,19.7192
1390226912516,19.7928
1390226972516,19.8266
1390227032516,19.7552
1390227092516,19.8298
1390227152516,19.8104
1390227212516,19.8402
1390227272516,19.7628
1390227332516,19.7936
1390227392516,19.7424
1390227452516,19.7917
1390227512516,19.7725
1390227572516,19.8396
1390227632516,19.7719
1390227692516,19.8004
1390227752516,19.7844
1390227812516,19.7980
1390227872516,19.6607
1390227932516,19.7222
1390227992516,19.7330
1390228052516,19.7790
1390228112516,19.7472
1390228172516,19.7337
1390228232516,19.7601
1390228292516,19.7437
1390228352516,19.8421
1390228412516,19.7657
1390228472516,19.7688
1390228532516,19.7761
1390228592516,19.7830
1390228652516,19.7864
1390228712516,19.8268
1390228772516,19.7806
1390228832516,19.8196
1390228892516,19.7145
1390228952516,19.7369
1390229012516,19.7750
1390229072516,19.7740
1390229132516,19.7837
1390229192516,19.7875
1390229252516,19.7939
1390229312516,19.7577
1390229372516,19.8088
1390229432516,19.7821
1390229492516,19.8221
1390229552516,19.8138
1390229612516,19.7905
1390229672516,19.8428
1390229732516,19.7679
1390229792516,19.7790
1390229852516,19.8184
1390229912516,19.7388
1390229972516,19.8453
1390230032527,19.8083
1390230092527,19.8170
1390230152527,19.9059
1390230212527,19.8678
1390230272527,19.8570
1390230332527,19.8360
1390230392527,19.7834
1390230452527,19.8293
1390230512527,19.8570
1390230572527,19.8440
1390230632527,19.8320
1390230692527,19.8198
1390230752527,19.9139
1390230812527,19.8402
1390230872527,19.8850
1390230932527,19.8927
1390230992527,19.8359
1390231052527,19.8292
1390231112527,19.8759
1390231172527,19.8478
1390231232527,19.8453
1390231292527,19.8147
1390231352527,19.8237
1390231412527,19.8511
1390231472527,19.8507
1390231532527,19.8126
1390231592527,19.8542
1390231652527,19.8331
1390231712527,19.9212
1390231772527,19.8337
1390231832527,19.7857
1390231892527,19.8165
1390231952527,19.8825
1390232012527,19.8494
1390232072527,19.8247
1390232132527,19.8264
1390232192527,19.8615
1390232252527,19.9089
1390232312527,19.8234
1390232372527,19.7981
1390232432527,19.8450
1390232492527,19.9324
1390232552527,19.9167
1390232612527,19.8581
1390232672527,19.8906
1390232732527,19.9139
1390232792527,19.8747
1390232852527,19.9088
1390232912527,19.9903
1390232972527,19.9580
1390233032527,19.8604
1390233092527,19.8310
1390233152527,19.7715
1390233212527,19.8915
1390233272527,19.8485
1390233332527,19.8087
1390233392527,19.7646
1390233452527,19.8323
1390233512527,19.8001
1390233572527,19.8235
1390233632538,19.8127
1390233692538,19.8123
1390233752538,19.8451
1390233812538,19.7665
1390233872538,19.8211
1390233932538,19.7668
1390233992538,19.8325
1390234052538,19.7893
1390234112538,19.8582
1390234172538,19.8635
1390234232538,19.8729
1390234292538,19.8477
1390234352538,19.8365
1390234412538,19.7786
1390234472538,19.8695
1390234532538,19.8529
1390234592538,19.8685
1390234652538,19.8490
1390234712538,19.8133
1390234772538,19.8811
1390234832538,19.8498
1390234892538,19.8380
1390234952538,19.8115
1390235012538,19.8837
1390235072538,19.8655
1390235132538,19.8461
1390235192538,19.8497
1390235252538,19.8387
1390235312538,19.8454
1390235372538,19.8689
1390235432538,19.8817
1390235492538,19.8511
1390235552538,19.8726
1390235612538,19.9385
1390235672538,19.8931
1390235732538,19.8791
1390235792538,19.8968
1390235852538,19.8426
1390235912538,19.9724
1390235972538,19.9046
1390236032538,19.8339
1390236092538,19.9095
1390236152538,19.8324
1390236212538,19.8485
1390236272538,19.8746
1390236332538,19.8434
1390236392538,19.7788
1390236452538,19.8090
1390236512538,19.9021
1390236572538,19.8847
1390236632538,19.8499
1390236692538,19.8720
1390236752538,19.8053
1390236812538,19.8556
1390236872538,19.8197
1390236932538,19.9595
1390236992538,19.9112
1390237052538,19.8682
1390237112538,19.8083
1390237172538,19.8346
1390237232549,19.9104
1390237292549,19.8371
1390237352549,19.8514
1390237412549,19.8573
1390237472549,19.8610
1390237532549,19.8221
1390237592549,19.8338
1390237652549,19.8287
1390237712549,19.9058
1390237772549,19.8681
1390237832549,19.8526
1390237892549,19.8836
1390237952549,19.9331
1390238012549,19.7769
1390238072549,19.8669
1390238132549,19.8845
1390238192549,19.8517
1390238252549,19.8822
1390238312549,19.9671
1390238372549,19.8611
1390238432549,19.9253
1390238492549,19.7863
1390238552549,19.8254
1390238612549,19.7944
1390238672549,19.7939
1390238732549,19.8212
1390238792549,19.8536
1390238852549,19.7561
1390238912549,19.8306
1390238972549,19.8300
1390239032549,19.7575
1390239092549,19.7819
1390239152549,19.8459
1390239212549,19.8217
1390239272549,19.7938
1390239332549,19.8486
1390239392549,19.8710
1390239452549,19.8935
1390239512549,19.8981
1390239572549,19.9373
1390239632549,19.9082
1390239692549,19.8614
1390239752549,19.9322
1390239812549,19.9202
1390239872549,19.9215
1390239932549,19.8496
1390239992549,19.9826
1390240052549,19.9032
1390240112549,19.8989
1390240172549,19.9008
1390240232549,19.8426
1390240292549,19.8557
1390240352549,19.9109
1390240412549,19.9385
1390240472549,19.8976
1390240532549,19.9411
1390240592549,19.9214
1390240652549,19.9135
1390240712549,19.8976
1390240772549,19.8955
1390240832560,19.8942
1390240892560,19.9718
1390240952560,19.8496
1390241012560,19.9177
1390241072560,19.9033
1390241132560,19.9689
1390241192560,20.0138
1390241252560,19.8862
1390241312560,19.9648
1390241372560,19.9631
1390241432560,19.9221
1390241492560,19.9721
1390241552560,19.8974
1390241612560,19.9165
1390241672560,19.9103
1390241732560,19.9178
1390241792560,19.9374
1390241852560,19.9173